GFSNIL_con_lsi_012.txt.gz
Lid_Strength_Index
6 5 5 6 6 6 7 7 6 6 6 6 5 5 5 6 6 5 5 5 5 3
5 5 6 6 7 8 7 6 6 6 6 6 5 5 5 5 5 4 4 4 4 3
6 6 7 7 8 8 7 6 6 6 6 5 4 4 4 4 3 4 4 3 4 5
7 7 7 8 8 7 7 7 6 5 5 5 5 5 5 4 4 4 5 6 6 6
7 7 8 7 7 7 7 6 5 4 5 5 5 6 6 5 5 6 7 7 7 7
7 7 8 8 7 6 6 5 3 4 5 5 5 6 6 6 6 7 7 7 7 7
8 7 8 7 6 5 4 3 2 4 4 4 5 5 6 6 7 8 7 7 7 7
7 7 6 5 5 4 3 2 3 4 4 5 5 5 7 7 7 8 8 7 7 8
7 6 6 5 4 3 3 4 3 4 4 6 5 5 5 6 8 8 8 9 8 8
6 6 6 4 3 3 3 3 5 6 6 6 7 4 4 5 7 8 8 9 9 8
7 7 5 4 4 3 3 5 6 6 6 7 6 5 5 5 8 8 8 8 8 9
6 6 5 4 4 4 5 6 6 6 7 8 8 6 6 7 9 9 9 8 8 8
5 4 4 4 4 6 7 6 7 7 8 7 9 7 7 7 10 12 10 10 9 8
5 5 5 5 6 6 7 8 9 9 9 9 9 9 8 8 9 10 10 11 10 9

GFSNIL_con_lsi_015.txt.gz
Lid_Strength_Index
7 6 6 7 7 7 8 8 8 8 7 7 7 7 7 7 7 6 6 6 6 5
7 6 7 7 8 8 8 7 8 8 7 7 7 6 6 6 5 5 5 5 5 6
7 7 7 8 8 8 8 7 7 7 6 6 5 5 5 5 5 5 5 5 7 7
7 8 8 8 8 8 8 8 7 6 6 5 5 6 6 5 5 6 6 7 7 7
8 8 8 9 9 9 7 7 7 6 5 5 5 5 5 5 6 7 7 7 8 8
9 8 8 9 9 8 8 8 6 5 5 5 5 4 5 6 7 7 7 7 8 8
9 8 9 9 9 8 7 6 6 4 4 4 4 5 6 7 7 7 7 7 7 8
8 8 8 8 8 7 6 5 3 5 4 5 5 6 7 6 7 8 8 8 7 7
8 8 8 8 7 6 5 4 5 4 6 7 5 4 4 5 7 7 8 9 8 8
8 8 8 7 6 6 6 3 5 7 7 7 7 4 4 5 7 8 9 9 9 9
9 9 8 7 6 6 5 6 7 7 7 7 7 6 6 7 9 10 9 9 9 9
9 8 7 7 6 6 6 7 7 7 8 9 9 7 7 8 10 10 10 9 9 9
8 8 8 8 7 7 7 6 7 8 9 8 10 8 8 8 11 14 10 10 9 9
8 8 8 8 8 8 8 8 9 10 10 9 9 10 8 8 12 11 10 10 11 10

GFSNIL_con_lsi_018.txt.gz
Lid_Strength_Index
7 7 7 8 8 8 8 8 8 8 8 8 8 8 7 7 7 7 6 6 6 6
7 8 7 8 8 8 8 8 8 8 8 8 8 7 7 7 6 6 4 4 5 5
8 8 8 8 9 9 9 8 8 8 8 8 7 7 7 6 5 5 5 4 6 6
9 9 9 9 9 9 9 8 8 8 8 7 6 7 7 6 6 5 6 6 7 7
9 9 9 9 9 9 9 8 8 8 6 6 6 6 7 6 6 6 7 7 7 7
10 10 10 10 9 9 9 9 8 6 6 6 6 6 5 6 7 7 7 7 8 8
10 10 10 9 9 9 9 9 6 6 5 6 5 6 7 7 7 7 7 7 7 8
10 9 9 9 9 8 8 7 4 5 6 6 6 6 7 7 7 7 8 7 7 7
10 9 9 9 9 8 8 7 6 7 7 7 6 4 4 6 7 8 8 9 9 9
10 10 9 9 9 8 8 7 8 8 8 8 7 6 6 6 8 9 10 10 10 10
10 10 10 9 8 8 8 7 8 8 8 7 8 7 7 7 9 10 9 10 10 10
10 10 10 9 9 8 8 8 8 7 8 9 10 8 8 8 10 10 10 9 9 9
10 10 10 9 9 8 8 8 8 8 9 8 10 9 8 8 11 13 11 10 9 9
10 10 9 9 9 9 9 9 9 9 9 9 9 10 8 8 11 11 10 10 10 9

GFSNIL_con_lsi_024.txt.gz
Lid_Strength_Index
4 3 3 4 4 5 5 5 5 4 4 3 3 3 3 3 4 4 5 5 3 3
4 4 5 5 4 5 5 6 5 5 4 4 4 3 3 4 4 3 3 2 2 2
5 5 5 5 5 6 5 5 5 5 5 4 3 3 3 4 3 3 2 2 2 1
5 5 5 5 6 5 5 5 6 5 5 4 4 4 4 3 2 2 2 2 1 1
5 6 5 6 6 5 5 5 5 5 5 5 4 4 4 3 3 2 2 1 1 2
6 5 5 6 5 5 5 5 5 5 5 5 5 4 4 3 3 2 2 2 2 3
5 5 5 5 5 5 5 6 5 5 5 5 5 4 3 3 2 2 2 2 3 4
5 5 6 5 5 5 5 5 5 5 5 5 4 4 3 3 2 3 3 3 4 4
6 6 6 6 6 6 6 5 5 5 5 5 4 7 7 6 3 3 4 5 5 5
7 7 7 6 6 6 6 5 5 5 5 5 4 8 7 7 4 4 4 5 5 6
7 7 7 7 7 6 6 6 5 5 5 4 5 8 7 7 4 4 4 5 5 5
7 8 7 7 7 6 6 6 5 4 4 4 4 7 7 6 4 4 5 5 5 6
7 8 8 7 6 6 6 6 5 5 4 6 4 7 8 6 4 5 5 5 6 7
8 8 7 6 6 7 6 6 5 5 5 4 4 4 7 8 5 5 6 6 6 6

GFSNIL_con_lsi_027.txt.gz
Lid_Strength_Index
4 4 4 4 4 4 5 5 4 4 5 4 4 4 3 3 4 3 3 4 4 4
4 5 5 5 4 5 5 5 5 5 5 5 4 4 3 4 4 3 3 3 3 3
5 5 5 4 5 5 5 4 5 5 5 5 5 4 4 4 3 4 3 3 3 2
6 6 4 5 5 5 4 5 5 6 6 5 5 5 4 4 4 4 3 2 3 2
5 4 5 5 5 4 5 5 5 6 6 5 5 5 5 5 4 5 4 3 3 2
5 5 5 5 5 5 5 5 5 6 6 6 6 6 5 5 5 4 3 3 2 2
5 5 5 5 5 5 5 6 6 6 6 5 5 6 5 5 5 4 3 2 2 3
5 5 5 6 5 5 5 6 6 6 6 5 6 6 6 6 5 5 3 3 3 3
5 6 6 6 6 6 6 6 6 6 6 6 6 10 9 8 6 4 4 4 3 3
6 7 7 7 7 7 6 6 6 6 6 6 6 9 9 9 6 4 4 4 4 4
7 8 7 7 7 7 6 6 6 5 6 6 7 9 9 9 6 4 4 4 4 4
8 8 8 8 8 7 7 6 6 6 6 6 6 9 8 8 5 4 4 4 4 5
8 8 8 8 8 7 6 6 7 7 5 7 5 8 8 8 5 5 4 4 4 6
8 8 8 8 7 6 6 7 6 6 5 5 5 5 7 7 6 5 5 5 5 5

GFSNIL_con_lsi_033.txt.gz
Lid_Strength_Index
7 7 7 7 7 7 7 7 7 8 9 9 8 8 8 8 8 8 8 9 9 8
6 7 8 8 7 6 8 6 7 8 8 9 9 8 8 9 9 9 9 9 8 8
8 8 8 7 7 7 7 7 7 7 7 8 8 8 9 9 9 9 9 8 9 9
8 8 7 7 6 7 7 8 8 7 8 8 9 9 9 9 9 9 9 9 9 8
8 7 7 7 6 6 7 8 7 8 8 8 8 9 9 9 9 10 10 10 9 8
7 7 6 6 6 6 8 7 8 8 9 8 8 9 9 9 9 9 9 9 9 9
6 6 6 6 7 7 7 8 8 8 8 8 8 8 8 9 9 10 9 10 10 9
5 6 6 7 7 7 8 8 8 7 8 7 8 8 10 9 10 10 11 10 9 9
6 6 7 7 8 8 8 8 8 9 8 9 9 9 8 9 11 11 11 11 10 9
6 7 8 8 8 9 9 9 9 8 8 9 10 9 9 10 11 11 10 10 10 8
8 9 8 9 9 9 8 9 9 8 8 8 8 8 9 10 11 10 9 9 9 9
8 9 9 9 9 9 9 9 8 7 7 8 9 9 8 9 10 9 9 8 7 7
9 9 9 9 9 8 9 8 8 8 8 8 10 7 7 8 10 9 9 8 8 6
8 8 8 8 8 9 9 9 9 9 9 8 8 8 6 6 9 9 9 8 8 8

GFSNIL_con_lsi_036.txt.gz
Lid_Strength_Index
7 6 7 7 7 7 8 8 7 8 8 8 8 9 9 9 9 9 10 10 10 10
7 7 7 6 6 6 7 7 8 8 8 8 9 9 10 9 9 10 10 10 10 10
8 7 7 7 7 7 7 7 8 7 7 8 9 9 9 10 10 10 10 10 10 10
8 7 7 7 7 7 7 7 7 7 8 8 9 9 10 10 10 10 10 10 10 9
8 6 7 7 7 6 6 6 7 7 8 9 9 10 10 10 10 10 10 10 10 10
8 7 7 7 6 6 7 7 8 9 9 9 9 9 9 9 10 10 9 10 9 9
7 7 7 7 6 7 7 8 8 9 9 9 8 8 8 9 9 10 9 9 10 10
7 7 6 7 8 8 8 8 8 9 9 8 8 8 8 8 10 10 10 10 10 10
7 8 8 8 8 9 8 8 9 8 8 8 8 8 8 9 10 9 10 11 10 9
7 7 8 8 8 9 9 9 9 8 8 8 8 8 8 8 10 11 10 10 9 9
8 9 9 9 9 9 9 9 9 9 8 8 8 8 7 8 10 9 9 9 8 9
9 9 9 9 9 8 9 9 9 8 8 8 8 8 7 7 9 9 8 7 7 8
9 9 9 8 8 9 8 8 8 8 8 7 8 6 5 6 8 9 8 8 8 6
8 8 8 8 8 9 9 9 9 9 8 7 7 7 5 5 8 8 8 8 8 8

GFSNIL_con_lsi_039.txt.gz
Lid_Strength_Index
6 6 6 6 7 8 8 8 8 8 8 8 7 8 8 9 9 10 10 10 11 10
8 9 7 7 7 8 8 8 8 7 7 7 7 8 8 8 10 10 10 10 10 10
8 8 6 7 7 8 8 7 7 8 8 7 7 8 9 10 10 10 10 10 10 10
8 8 7 7 8 8 7 8 8 8 8 8 8 10 10 10 10 10 10 10 10 10
8 8 8 7 8 8 8 8 8 7 8 9 9 10 10 10 10 10 11 10 10 9
8 8 8 8 7 8 8 8 8 8 8 9 9 10 10 10 10 10 10 10 10 9
8 8 7 7 7 8 8 8 9 8 8 8 9 8 8 9 9 10 9 9 9 9
8 7 7 8 9 8 8 8 8 8 8 8 8 8 8 9 9 9 9 9 9 9
7 7 8 9 9 9 9 9 8 8 8 9 8 8 8 7 9 9 9 10 9 8
7 8 9 9 9 9 9 9 9 9 10 9 8 7 6 7 9 9 8 9 9 8
9 10 9 9 9 9 8 9 10 10 9 9 8 7 7 7 9 9 8 9 8 9
9 9 9 9 9 8 9 10 9 9 9 9 9 7 7 7 9 9 9 8 7 8
8 9 9 9 9 10 9 9 9 9 9 8 9 7 6 6 10 9 9 9 8 6
8 8 8 10 10 10 10 10 10 10 10 10 9 8 5 5 8 8 8 8 9 8

GFSNIL_con_lsi_042.txt.gz
Lid_Strength_Index
4 4 5 5 6 7 9 10 9 9 8 8 8 8 8 9 8 9 10 10 10 10
4 5 5 5 6 8 9 8 9 8 8 7 8 8 9 8 8 9 10 10 10 11
6 6 6 6 7 8 8 8 9 8 7 8 8 8 9 9 9 10 10 10 11 10
8 7 6 7 6 7 8 9 9 8 8 8 9 9 9 9 10 10 10 10 11 10
7 7 7 7 8 9 9 9 8 8 8 9 9 9 10 10 9 10 11 11 10 9
9 7 8 8 8 8 8 8 8 8 8 8 8 9 10 9 10 10 10 10 9 9
9 8 8 8 8 8 8 8 8 8 8 8 9 9 8 9 10 11 10 9 9 8
9 9 8 8 9 8 9 9 9 8 7 7 8 8 8 8 10 10 9 9 9 9
9 9 9 10 10 9 9 7 7 8 8 8 7 8 9 8 9 9 9 9 9 9
9 9 9 9 9 9 8 8 9 8 8 9 9 8 7 7 9 9 9 10 9 9
9 10 9 9 8 9 8 9 9 10 10 11 9 8 7 8 9 10 9 9 9 8
9 9 9 8 8 8 9 10 10 11 11 10 10 8 7 8 10 10 10 9 8 8
8 8 8 9 9 10 10 11 11 11 10 9 10 8 7 7 10 10 9 9 8 6
8 8 8 9 11 11 12 12 12 11 10 10 10 10 7 6 9 9 9 8 8 8

GFSNIL_con_lsi_045.txt.gz
Lid_Strength_Index
2 2 2 3 4 5 5 5 5 6 7 7 7 7 7 7 7 6 6 6 5 5
2 2 3 4 4 5 4 6 6 6 6 6 7 7 8 7 6 6 6 5 5 6
1 2 2 3 4 4 5 6 6 6 6 6 6 7 8 7 7 6 6 6 6 6
2 2 2 3 4 5 6 6 7 7 6 7 8 7 8 8 7 7 6 6 6 6
3 3 4 4 4 4 6 7 7 7 8 8 8 7 7 7 8 7 7 7 6 6
4 4 4 5 5 6 7 6 7 7 8 9 8 7 7 7 6 7 7 7 6 6
5 5 5 6 6 6 6 7 7 7 7 7 8 6 7 7 7 7 7 7 7 5
7 6 6 7 8 7 7 7 7 8 7 6 6 7 8 7 7 7 7 7 6 5
7 8 9 9 9 8 8 7 6 7 7 7 7 9 9 8 7 7 8 7 5 5
8 9 9 8 7 7 7 7 7 7 7 8 8 9 9 9 8 7 6 5 5 5
8 8 8 8 7 7 8 8 8 8 7 7 7 10 10 10 7 6 5 5 5 5
7 8 8 8 8 7 8 8 7 7 8 8 8 10 10 8 6 6 6 5 5 5
7 7 7 7 8 9 8 8 8 9 8 9 9 9 8 7 6 6 6 5 5 7
8 8 8 9 9 9 9 9 9 9 9 9 8 7 8 7 6 6 6 6 5 4

GFSNIL_con_lsi_051.txt.gz
Lid_Strength_Index
0 1 1 1 1 1 1 0 1 2 3 3 2 2 3 6 5 5 5 6 6 6
0 0 1 0 0 0 -0 2 3 4 3 2 2 4 6 6 6 7 6 6 5 6
0 0 0 0 1 0 1 2 3 3 3 3 5 5 5 7 7 7 7 7 7 7
1 0 1 1 1 1 1 2 2 2 3 5 4 5 7 7 8 8 7 7 7 6
1 1 1 1 1 1 1 3 3 5 5 6 8 8 9 9 8 8 7 7 7 6
2 2 3 4 4 4 4 5 5 6 6 7 8 8 8 7 7 7 7 7 6 5
3 3 3 4 4 5 6 7 7 6 7 8 8 7 7 7 7 6 6 6 6 6
3 3 4 4 5 5 6 7 7 7 7 7 7 6 7 6 6 7 7 6 6 5
3 2 3 4 4 4 4 4 5 5 5 5 6 8 8 8 7 7 7 6 5 4
3 3 4 4 4 4 4 4 5 5 5 5 6 9 9 9 6 6 5 5 5 6
3 4 4 4 4 4 4 5 5 6 7 6 6 9 9 9 7 7 6 6 5 5
3 4 4 5 5 5 5 7 6 6 6 6 6 8 10 9 7 7 7 6 6 6
4 4 5 6 7 7 6 6 6 7 7 9 7 9 9 9 8 8 7 7 6 8
5 5 6 7 6 6 7 7 7 8 7 7 7 7 9 10 9 9 10 10 8 7

GFSNIL_con_lsi_054.txt.gz
Lid_Strength_Index
1 1 1 1 1 1 1 1 1 1 1 2 3 3 3 4 6 6 6 6 8 7
1 1 1 1 1 1 1 1 2 2 3 3 3 4 6 6 6 6 7 7 7 8
1 1 1 1 1 1 2 3 3 3 3 4 4 6 6 6 8 8 8 7 8 8
1 1 1 1 1 1 2 2 3 3 3 4 6 6 8 8 8 9 9 9 8 7
1 1 1 2 2 2 2 2 3 3 5 6 7 8 8 8 8 7 8 7 7 7
2 3 4 4 4 5 5 6 6 6 7 8 8 8 8 8 8 7 7 7 7 7
4 5 5 5 6 6 7 8 8 8 8 8 8 8 7 7 7 7 7 7 7 6
5 5 5 6 7 7 7 8 8 8 8 8 8 7 7 7 7 7 7 7 6 6
4 4 5 6 6 6 7 7 7 6 7 7 6 8 8 8 8 8 8 8 7 6
4 5 5 4 4 5 5 5 5 6 6 6 7 9 9 9 8 8 8 8 8 8
5 5 5 5 5 5 5 6 6 6 7 7 7 9 9 10 9 10 9 9 8 9
5 5 5 5 5 6 6 7 6 6 7 8 8 9 10 11 10 10 10 9 9 9
4 4 6 6 6 7 6 6 6 7 8 10 10 11 11 10 11 12 13 12 11 10
5 5 6 7 7 7 7 8 10 10 10 9 11 12 12 12 14 15 15 14 14 13

GFSNIL_con_lsi_057.txt.gz
Lid_Strength_Index
1 1 2 1 1 1 1 1 1 1 2 2 2 3 3 3 5 6 6 6 7 8
1 2 1 1 1 1 1 2 2 2 2 2 3 3 4 6 6 6 7 8 8 8
1 1 2 2 2 1 3 4 4 4 3 3 4 6 6 7 6 7 7 7 7 7
1 2 2 3 3 2 3 4 3 3 4 4 6 6 7 7 7 8 8 7 7 8
2 2 2 2 2 2 3 4 4 4 4 5 6 7 8 8 8 8 8 7 7 7
2 1 2 4 5 5 6 6 5 6 6 7 7 8 8 8 8 8 7 7 7 7
4 4 6 6 6 6 6 7 7 7 8 8 8 8 8 8 8 7 7 7 7 7
6 6 7 7 7 7 7 7 8 8 8 8 8 8 8 7 7 8 8 7 7 7
6 7 8 8 8 8 8 8 8 8 8 8 7 9 8 8 8 7 8 8 8 8
6 7 7 7 8 7 7 8 8 8 8 8 9 9 8 9 8 8 10 10 10 9
7 7 7 8 8 8 8 8 8 7 7 7 7 9 9 10 10 11 11 11 11 12
7 7 8 8 7 8 7 7 7 7 8 8 8 10 10 11 12 13 14 12 13 12
7 7 7 7 7 7 7 7 7 8 10 11 13 12 11 13 16 16 16 15 14 13
7 7 8 8 8 8 9 10 12 12 12 13 14 14 13 14 16 17 16 16 16 16

GFSNIL_con_lsi_060.txt.gz
Lid_Strength_Index
1 1 1 2 2 2 1 1 0 1 1 2 2 2 3 4 4 4 5 6 6 7
1 1 1 1 2 2 1 1 2 2 1 2 2 2 3 4 6 6 7 6 6 7
1 1 1 1 2 2 2 2 3 3 2 3 3 3 4 5 7 7 7 7 7 7
1 1 2 2 2 2 2 3 4 3 3 3 4 5 6 7 7 8 8 7 7 7
1 1 2 2 2 2 3 4 4 4 5 5 6 7 8 8 8 8 8 7 6 7
2 2 2 2 2 1 2 3 4 5 5 7 7 7 8 8 8 8 7 7 7 7
2 2 2 3 4 5 4 6 7 7 7 8 8 8 8 8 7 7 7 7 7 7
2 4 5 6 6 7 7 8 9 8 8 8 8 8 8 7 8 8 8 7 7 7
6 6 7 7 7 8 8 9 8 8 8 8 8 10 9 8 8 8 8 8 8 8
6 7 8 8 8 9 9 8 8 9 9 8 8 9 9 9 8 8 8 10 12 12
8 8 8 8 8 8 9 9 8 8 9 9 8 9 9 10 10 12 13 13 14 14
8 8 8 9 10 10 10 9 9 8 8 9 9 10 11 11 13 14 15 14 15 15
8 9 10 10 10 9 8 8 8 9 10 10 10 11 11 13 16 17 17 16 16 15
9 9 9 9 8 8 10 11 12 13 13 13 13 13 13 14 17 17 17 17 17 17

GFSNIL_con_lsi_063.txt.gz
Lid_Strength_Index
3 3 3 3 3 3 3 2 1 1 1 1 1 2 2 3 3 4 4 5 5 6
3 3 3 3 2 2 2 2 2 1 1 1 1 2 2 2 2 4 4 5 5 6
4 3 2 2 1 1 2 2 2 2 2 1 1 2 2 2 4 5 6 6 7 7
3 3 2 1 1 1 2 2 2 2 2 2 2 3 4 5 6 7 8 8 7 8
2 2 1 1 1 1 1 2 2 3 3 3 4 5 5 6 7 8 8 8 8 7
2 1 1 1 1 1 2 3 3 3 4 5 6 6 7 7 8 8 8 8 8 7
2 2 1 1 1 1 2 3 3 3 4 6 8 7 8 8 8 8 8 8 7 6
2 2 1 2 2 4 4 4 5 6 7 8 8 8 8 8 8 8 8 7 7 7
2 2 3 4 6 7 8 7 8 8 8 9 8 11 10 9 9 8 8 8 7 9
3 5 6 7 7 8 8 8 8 9 9 9 9 11 11 10 8 8 8 9 10 11
6 6 7 7 8 8 8 9 10 9 9 9 10 10 10 10 9 11 12 13 13 14
7 8 8 9 9 9 10 10 10 9 10 9 10 11 11 11 13 14 15 15 15 15
7 8 9 10 9 10 10 9 10 11 10 10 10 11 11 13 15 16 16 16 16 15
8 9 9 10 10 10 11 12 13 14 12 12 12 13 12 13 15 16 16 17 17 17

GFSNIL_con_lsi_066.txt.gz
Lid_Strength_Index
3 3 4 4 4 5 4 3 3 2 2 2 1 1 2 3 2 2 3 3 4 4
3 4 4 4 4 4 4 4 4 3 3 2 2 2 2 1 2 2 3 3 4 4
3 4 4 4 4 3 3 3 3 3 3 3 2 2 2 2 2 2 3 4 5 5
4 4 4 3 3 3 2 2 2 1 2 2 2 3 2 2 3 4 4 5 6 6
4 4 4 4 3 3 3 2 1 1 2 2 2 2 3 4 6 5 6 7 7 8
5 4 4 4 3 3 2 2 2 1 2 2 3 4 4 4 6 6 7 7 7 8
5 4 4 3 3 2 1 1 1 1 2 3 4 5 5 6 8 8 8 8 7 7
4 4 3 3 2 2 1 1 1 3 5 6 6 6 7 7 9 8 9 8 8 8
3 3 3 3 2 2 2 2 3 5 5 7 7 9 9 8 9 9 9 9 10 10
3 3 3 2 3 4 4 5 6 7 7 9 10 10 10 11 9 9 9 11 12 11
3 3 5 5 6 7 7 7 8 8 8 9 10 11 11 11 11 12 12 12 12 13
4 6 6 7 8 8 8 9 9 9 9 11 12 12 13 13 13 14 14 14 14 14
6 7 7 8 9 9 10 10 10 11 11 12 13 13 13 13 14 15 15 15 15 14
8 9 9 10 9 9 11 12 13 14 14 14 14 14 13 13 14 15 16 17 17 16

GFSNIL_con_lsi_069.txt.gz
Lid_Strength_Index
1 1 1 1 1 1 1 0 0 0 -0 -0 -0 -0 -1 -0 -0 -0 -0 0 0 2
1 1 1 1 1 1 0 1 1 -0 -0 -0 -1 -1 -1 -0 0 -0 -0 0 2 1
1 1 1 0 1 1 1 0 0 0 0 -0 -0 -0 -0 -0 -0 0 0 0 2 1
2 2 2 2 2 2 2 1 2 1 0 0 -0 -0 -0 0 0 1 1 2 2 2
2 2 2 2 2 2 2 1 1 2 1 0 0 0 1 2 2 3 3 4 4 4
3 3 3 2 2 1 1 0 0 1 1 1 2 2 2 2 3 3 3 4 6 6
3 3 3 2 2 1 1 1 1 1 1 1 1 2 2 2 3 4 5 6 6 7
2 2 3 3 3 2 2 1 1 1 1 1 2 3 4 4 5 6 7 7 8 8
2 2 3 3 3 2 2 1 1 1 1 3 4 9 9 7 7 7 8 9 10 10
2 2 2 3 3 2 2 1 1 1 2 4 5 10 10 9 8 9 9 11 12 13
2 2 2 2 2 2 2 3 4 5 6 8 10 11 11 11 10 11 12 13 13 14
2 2 2 2 4 7 7 8 8 8 9 11 12 13 13 12 13 14 15 15 15 15
2 2 4 6 8 9 9 10 10 11 11 12 12 13 13 13 14 16 16 16 16 15
5 6 8 9 9 9 11 12 13 14 13 13 13 13 13 13 14 16 17 17 17 15

GFSNIL_con_lsi_072.txt.gz
Lid_Strength_Index
0 1 1 1 1 1 1 0 -0 -0 0 0 0 0 -1 -0 -0 -1 -0 -0 -0 0
0 0 1 0 -0 0 -0 -0 -0 -0 -0 -0 -0 -1 -1 -0 -0 -0 -0 -0 -0 0
0 0 0 0 0 0 -0 -0 -0 -0 -0 -0 -0 -1 -1 -0 -1 -0 -0 -0 0 0
1 0 0 0 0 0 -0 -0 -0 -0 -0 0 -0 -0 -0 -0 -0 0 0 -0 0 1
1 0 1 1 0 -0 0 -0 -0 -0 0 0 0 -0 0 0 0 1 1 1 1 1
1 1 1 1 0 0 0 0 -0 0 0 0 0 0 0 0 0 0 1 1 2 3
1 1 1 1 1 0 0 1 0 0 0 0 0 0 1 1 2 2 3 2 2 3
1 1 1 1 1 1 0 0 0 0 0 0 1 1 1 1 1 2 3 4 4 4
1 1 1 1 1 1 1 1 1 1 0 1 1 5 7 2 1 3 5 6 7 7
1 1 1 1 1 1 1 1 1 1 1 1 1 9 8 9 2 5 6 8 10 11
2 2 1 1 1 1 1 1 1 1 1 1 1 10 10 11 7 9 10 11 12 13
2 2 2 2 2 1 2 2 2 3 4 4 8 11 11 11 12 14 14 14 14 14
1 2 2 2 2 4 4 6 9 10 10 12 12 13 12 12 13 15 15 15 15 15
1 2 2 5 5 7 10 11 12 13 13 13 13 13 13 13 14 16 17 17 17 16

GFSNIL_con_lsi_078.txt.gz
Lid_Strength_Index
1 1 1 1 1 2 2 2 2 1 2 2 2 2 2 2 2 2 2 2 2 2
1 1 2 1 1 1 1 2 2 2 1 1 2 2 3 3 2 2 2 2 2 1
1 1 1 1 1 1 1 1 2 2 1 1 1 2 1 1 1 1 1 1 1 1
1 1 1 1 1 1 1 1 1 1 1 1 2 2 2 2 1 1 1 1 1 1
1 1 1 1 1 1 1 1 1 1 1 1 1 2 2 2 2 2 2 2 2 1
2 2 2 1 1 1 1 1 1 1 1 1 1 2 1 1 1 1 1 1 2 1
2 2 2 1 1 1 1 1 1 1 1 1 1 1 1 1 2 1 1 1 1 1
2 1 1 1 1 1 1 1 1 1 1 1 1 1 1 1 1 1 1 1 1 1
2 2 2 2 2 1 1 1 1 1 1 2 1 5 7 3 1 2 2 2 2 3
2 2 2 2 2 2 2 2 2 2 1 2 1 7 8 9 2 2 2 3 2 4
2 2 2 2 2 2 2 2 2 2 2 2 1 8 9 10 4 2 3 4 3 3
2 2 2 2 2 2 2 2 2 2 2 2 2 9 10 9 4 6 11 12 12 12
2 2 2 2 2 2 2 2 2 2 5 7 4 12 11 9 10 14 15 15 14 14
3 2 2 2 2 2 2 7 11 13 14 13 13 13 11 11 12 14 15 16 16 15

GFSNIL_con_lsi_081.txt.gz
Lid_Strength_Index
1 1 1 2 2 2 2 2 2 2 1 1 1 2 2 2 2 2 2 3 3 3
2 1 2 1 1 1 1 1 2 2 2 1 1 1 2 2 3 3 2 3 3 2
1 1 1 1 1 1 1 2 2 2 1 1 2 2 1 2 2 2 2 2 2 2
2 1 1 1 1 1 1 1 2 2 2 2 2 2 3 2 2 2 2 1 1 2
2 1 1 1 1 1 1 1 1 2 3 3 2 2 3 3 3 3 3 2 2 2
2 2 2 2 1 1 1 1 1 1 2 3 2 2 2 3 3 3 2 2 2 3
2 2 2 1 1 1 1 1 1 1 2 2 2 2 2 2 3 3 2 2 2 2
3 2 2 2 1 1 1 1 1 1 2 2 2 1 2 2 3 3 3 3 2 2
3 2 2 2 2 2 2 2 1 1 1 2 1 5 8 4 2 3 3 3 3 2
3 3 2 2 2 2 2 2 2 2 2 2 2 8 8 8 2 3 3 2 2 2
3 3 3 3 3 2 2 3 2 2 2 2 2 8 9 10 3 2 3 3 3 4
5 6 3 3 3 3 3 3 3 2 2 2 2 9 9 10 5 4 3 9 9 6
7 7 8 5 3 3 3 3 3 3 3 5 3 10 10 9 4 9 14 15 15 14
10 10 9 9 5 3 3 4 5 9 13 13 12 12 12 11 10 10 15 16 16 15

GFSNIL_con_lsi_084.txt.gz
Lid_Strength_Index
1 1 1 2 2 2 2 2 2 2 2 2 2 2 2 2 2 2 3 3 4 3
1 1 1 2 1 1 2 2 2 2 2 1 1 1 1 1 2 2 2 3 3 3
1 1 1 1 1 1 1 2 2 2 2 1 1 1 1 1 1 2 2 2 3 3
1 1 1 1 1 1 1 2 2 2 2 2 1 1 2 1 1 2 1 1 2 2
1 1 2 1 1 1 1 1 1 2 2 2 2 2 2 2 2 3 2 2 2 2
2 2 2 1 1 1 1 1 1 2 2 2 2 2 2 2 2 3 3 3 3 3
4 3 2 2 1 1 1 1 1 1 2 3 3 3 3 3 3 3 3 3 3 3
4 3 3 3 2 2 1 1 1 1 1 2 2 3 3 3 3 3 3 3 3 3
3 3 4 3 3 3 3 2 2 2 2 2 2 6 8 5 3 3 4 4 4 3
5 3 3 2 2 3 3 3 3 3 2 2 2 7 8 9 3 3 3 3 3 4
6 7 6 5 3 2 3 3 3 3 3 3 2 8 9 10 4 3 3 3 3 4
8 8 7 9 8 6 2 3 3 2 3 3 2 9 9 10 4 3 3 3 3 3
10 10 9 9 8 7 7 2 2 3 3 5 3 8 10 9 4 5 5 4 11 13
12 11 11 11 10 9 9 9 4 4 11 11 14 13 13 11 5 5 7 11 16 16

GFSNIL_con_lsi_087.txt.gz
Lid_Strength_Index
1 1 2 2 3 3 3 2 3 3 2 2 2 2 2 2 2 3 3 4 4 4
1 1 2 2 2 3 3 2 2 2 2 2 2 2 2 2 3 2 3 3 4 4
1 1 1 1 2 2 3 3 3 3 2 2 1 2 2 2 1 2 2 2 3 4
2 1 1 1 1 1 1 2 3 2 2 2 2 1 1 1 1 1 1 1 2 3
2 1 1 1 1 1 1 1 2 2 2 3 2 2 1 1 1 2 2 1 2 2
4 3 2 1 1 1 1 1 1 1 2 2 3 2 2 2 2 2 2 2 2 2
4 3 3 3 1 1 1 1 1 1 1 2 2 3 3 3 3 2 2 2 2 2
3 3 2 3 2 2 2 1 1 1 1 1 2 2 2 3 3 3 3 3 3 3
2 3 2 3 3 2 2 2 2 2 2 2 2 6 7 4 3 3 4 4 4 3
8 7 6 5 3 3 3 3 3 3 2 3 3 8 9 9 3 3 3 3 3 3
9 9 8 8 8 7 6 3 2 2 2 3 2 8 9 10 5 4 4 3 3 3
12 11 11 11 10 9 8 8 7 3 2 2 2 8 9 10 5 5 5 4 3 3
14 13 13 13 12 11 9 9 8 7 8 12 12 14 14 11 4 5 5 4 4 8
15 14 14 13 12 12 11 10 11 12 14 15 16 16 15 14 11 6 5 6 7 16

GFSNIL_con_lsi_090.txt.gz
Lid_Strength_Index
2 2 2 2 2 2 2 2 3 2 3 2 2 2 2 3 3 4 4 5 5 5
2 2 2 2 2 2 3 2 3 3 2 2 2 1 2 3 3 3 3 4 4 4
1 2 2 2 3 3 3 3 3 3 3 3 3 2 2 2 2 2 2 2 3 3
1 2 1 1 2 3 3 3 3 3 3 3 2 2 2 2 2 2 2 1 2 2
2 2 1 1 1 1 2 3 3 3 3 3 3 2 3 3 2 2 2 2 2 2
3 3 2 1 1 1 1 1 2 3 3 3 3 2 2 2 2 2 2 2 2 2
4 4 4 3 2 1 1 1 1 1 1 2 2 3 3 3 2 2 2 2 2 1
4 3 3 3 3 2 2 2 2 2 2 1 1 2 2 2 2 3 3 2 2 2
7 4 4 3 3 3 3 3 2 3 3 3 3 7 8 5 3 3 3 3 3 3
9 8 8 7 7 7 5 2 2 2 2 3 3 8 9 10 4 3 4 4 4 4
12 11 11 10 10 10 9 8 7 6 3 2 2 11 10 10 5 4 3 4 4 4
14 14 13 12 12 11 10 9 8 9 11 13 12 14 14 12 5 4 4 3 3 4
15 15 15 15 14 12 11 10 10 13 14 14 14 14 14 13 10 7 5 4 4 10
16 15 15 15 14 13 12 12 12 13 14 15 14 15 14 13 12 13 15 16 16 16

GFSNIL_con_lsi_096.txt.gz
Lid_Strength_Index
0 1 1 1 1 1 1 1 2 3 3 3 3 3 3 3 3 3 2 1 0 1
1 1 1 0 0 0 0 1 2 2 3 3 3 4 4 4 3 3 3 1 0 1
1 1 1 0 1 1 0 0 1 2 3 3 4 4 3 4 4 3 2 2 1 1
1 1 1 1 1 0 0 0 1 1 2 3 4 4 4 4 4 3 2 1 2 2
1 1 1 1 1 0 1 1 0 0 1 2 3 3 4 3 3 3 2 1 2 2
2 1 1 1 0 0 0 0 0 0 1 1 1 2 2 1 1 1 1 1 3 2
2 2 1 1 1 1 1 1 1 1 0 1 1 1 1 1 1 1 1 1 1 1
2 1 1 1 1 1 1 1 1 1 1 1 1 1 1 1 1 1 1 1 1 0
9 8 7 6 6 4 3 2 1 1 1 1 8 14 12 7 1 1 1 1 1 0
12 11 10 9 9 9 7 7 8 9 10 12 13 14 13 14 6 2 1 1 1 1
13 13 12 12 11 10 10 11 12 13 12 14 15 15 15 15 9 7 5 6 10 9
14 14 13 13 12 11 12 13 14 14 14 14 15 15 15 12 8 10 13 14 15 14
14 14 14 13 12 12 13 14 14 15 15 15 15 15 15 11 10 13 14 16 16 16
15 15 15 14 13 13 13 13 14 14 15 15 15 15 15 14 12 13 15 16 16 16

GFSNIL_con_lsi_099.txt.gz
Lid_Strength_Index
1 1 1 1 1 1 2 1 2 2 3 3 3 2 2 3 3 3 2 2 2 2
1 1 1 1 1 1 1 1 1 2 3 3 3 3 3 3 3 3 3 2 2 2
1 1 0 1 1 1 1 0 1 1 3 3 3 2 3 3 2 3 2 3 2 1
1 1 1 1 1 1 1 1 1 2 2 3 4 4 4 4 4 4 3 3 2 2
1 1 1 1 1 0 1 0 0 1 2 3 3 3 3 4 4 5 4 3 4 3
2 1 1 1 1 1 1 1 0 1 1 2 3 3 3 3 3 3 3 3 2 1
2 2 1 1 1 1 1 1 1 1 1 1 1 2 2 3 2 1 1 0 1 0
2 2 1 1 1 1 1 1 1 1 1 1 1 5 5 2 2 1 1 1 1 1
8 8 7 6 5 1 2 2 2 5 2 8 11 14 13 11 1 1 1 2 1 1
11 10 10 8 8 9 9 8 9 10 11 12 13 14 13 14 5 1 2 5 4 3
13 13 12 11 11 12 13 13 13 12 13 14 14 15 14 14 8 10 13 13 13 12
14 14 12 13 13 14 14 15 15 15 14 15 16 15 14 10 11 14 15 16 15 15
15 15 15 14 14 14 15 16 15 16 15 15 16 16 15 12 13 15 16 16 17 17
16 15 14 14 14 14 14 14 15 15 15 16 16 16 15 14 13 15 16 16 16 16

GFSNIL_con_lsi_102.txt.gz
Lid_Strength_Index
1 2 2 2 2 2 2 2 2 2 1 1 2 2 2 1 1 2 2 2 2 3
2 2 2 1 1 1 1 1 1 2 2 1 2 2 3 3 3 3 3 3 3 3
2 1 1 1 2 1 1 1 2 2 2 2 2 2 2 3 3 3 3 3 2 3
2 2 1 1 1 1 1 1 1 2 3 3 2 2 3 2 3 2 2 3 3 2
2 2 2 2 1 1 1 1 1 1 2 3 3 2 3 3 3 3 4 3 3 3
3 2 2 2 1 1 1 1 1 1 2 3 3 3 3 3 4 4 3 4 3 4
3 3 2 1 1 1 1 1 1 1 1 2 3 3 3 3 3 4 4 4 3 3
5 3 2 2 1 1 1 1 1 1 1 2 4 9 6 3 3 3 3 3 2 2
10 9 7 7 5 5 6 7 7 7 9 11 12 13 13 10 3 3 2 2 1 1
12 12 11 11 10 11 10 10 12 12 13 14 14 14 13 13 6 8 9 10 8 8
13 13 13 13 13 14 13 13 13 14 14 14 15 14 13 12 11 13 13 14 13 13
14 14 15 15 14 15 15 15 15 15 15 16 15 13 12 12 13 14 15 16 15 15
14 14 15 15 15 15 16 16 16 16 16 16 17 15 14 13 14 16 16 16 16 16
15 15 16 16 16 17 16 16 16 17 17 17 17 17 15 15 15 16 17 18 18 17

GFSNIL_con_lsi_105.txt.gz
Lid_Strength_Index
2 2 2 3 3 3 3 3 2 2 2 1 1 1 1 2 2 2 2 2 2 2
3 2 3 3 3 3 3 2 1 2 2 1 1 1 1 2 2 2 2 2 2 2
3 3 3 3 3 3 3 2 1 2 2 1 1 1 2 2 2 2 2 2 2 3
3 3 3 2 3 3 3 2 1 2 2 2 2 2 2 2 2 3 3 3 3 3
3 3 3 3 3 3 2 1 2 2 2 2 2 2 2 3 3 3 3 3 3 3
3 3 3 2 3 2 2 1 1 2 2 3 2 2 2 2 3 3 3 2 3 3
3 3 2 2 2 1 2 2 2 2 2 2 2 3 3 3 3 2 2 3 3 3
9 6 5 5 2 1 1 1 1 1 2 2 3 6 3 3 3 3 3 3 3 3
12 12 11 9 9 7 8 8 9 9 9 10 11 13 13 8 4 3 4 4 3 3
13 13 13 13 13 13 13 12 13 13 13 13 13 13 12 12 7 8 9 10 8 9
13 13 14 14 14 15 14 14 15 14 14 13 13 13 13 13 13 14 14 14 14 13
15 14 14 14 14 14 16 16 16 16 16 15 14 14 14 14 15 15 15 15 15 15
15 16 15 15 15 15 16 16 16 17 16 16 16 14 14 14 15 16 16 16 15 15
16 16 16 15 15 15 16 16 16 17 17 17 16 16 15 15 15 16 17 17 17 16

GFSNIL_con_lsi_108.txt.gz
Lid_Strength_Index
2 3 3 2 2 3 3 2 3 3 3 2 2 1 1 1 1 1 2 2 2 3
2 2 2 3 3 3 3 3 3 3 3 3 2 1 1 1 1 1 2 2 2 3
2 2 3 3 3 3 3 4 4 3 3 1 2 1 1 1 1 1 2 2 2 2
3 3 4 3 3 4 4 4 4 4 1 2 2 1 1 1 1 2 2 2 2 3
4 4 4 3 3 4 4 3 4 4 2 2 2 2 3 2 2 2 2 3 3 3
9 3 3 3 3 3 4 3 3 3 2 2 2 2 2 2 2 2 2 2 3 3
11 9 4 3 3 3 3 3 3 2 2 2 2 2 2 2 3 2 2 2 2 2
12 11 10 7 2 2 3 2 2 2 2 2 3 7 4 2 2 3 2 3 3 3
13 12 12 12 11 10 10 10 10 10 10 10 11 13 13 10 3 3 3 3 3 3
14 14 14 14 15 14 13 12 13 13 12 12 12 12 12 11 7 9 10 10 7 9
14 15 14 15 15 16 15 15 15 15 14 14 14 14 13 13 13 14 14 14 13 13
16 15 15 16 15 16 16 17 16 16 15 15 15 14 14 14 15 15 16 15 15 14
16 16 16 16 16 16 15 17 17 17 16 15 16 14 14 15 15 16 16 16 16 15
17 17 17 16 15 16 16 17 17 18 17 17 16 15 15 15 16 16 17 17 17 16

GFSNIL_con_lsi_111.txt.gz
Lid_Strength_Index
8 2 3 3 3 3 3 2 2 2 1 1 1 2 2 1 1 1 1 1 1 2
6 2 2 3 3 3 3 3 2 2 2 2 2 2 2 1 1 1 1 1 1 2
5 3 1 1 3 3 3 3 3 3 3 3 3 3 3 2 2 1 1 1 2 2
3 1 1 2 2 3 3 3 4 4 4 3 3 3 3 2 2 2 2 1 2 2
9 7 2 3 2 3 3 3 3 4 4 4 4 1 2 2 1 2 2 2 2 2
11 11 10 6 3 3 3 3 3 4 4 4 4 2 3 2 2 2 2 2 2 2
12 12 12 11 8 2 2 3 4 4 4 4 4 2 2 2 2 2 2 1 2 2
12 12 13 13 12 11 3 3 3 4 4 3 3 3 2 2 2 2 3 2 2 2
13 13 13 13 13 14 13 12 9 9 8 9 11 13 12 8 2 2 3 3 3 3
14 14 14 14 15 15 16 16 15 14 12 13 13 13 11 11 6 7 8 8 5 8
15 15 14 15 15 16 15 16 16 16 15 14 15 14 13 13 13 14 14 14 12 12
15 15 15 16 16 16 16 17 17 16 16 15 15 14 14 14 15 15 15 15 14 14
17 16 16 16 16 16 16 16 16 17 16 16 16 15 14 16 16 16 16 16 15 15
17 17 17 17 16 17 17 17 17 17 16 17 17 16 15 15 16 17 17 17 17 16

GFSNIL_con_lsi_114.txt.gz
Lid_Strength_Index
8 8 3 3 3 3 3 2 2 2 2 2 1 1 2 1 1 1 1 1 1 1
9 8 7 3 3 3 3 3 3 2 2 2 1 1 1 2 2 2 2 2 1 1
7 5 6 5 3 3 3 4 3 3 2 2 2 2 2 2 2 2 2 1 1 1
8 7 4 3 1 2 2 3 3 3 3 2 3 2 2 2 3 3 2 1 1 2
10 9 9 8 8 2 3 2 2 3 3 3 3 3 3 3 3 2 3 2 2 2
12 11 11 11 11 9 3 3 3 3 3 3 3 4 4 4 3 1 2 1 2 2
13 13 12 12 12 12 11 6 3 3 3 3 3 4 4 4 3 2 2 1 1 1
13 13 13 13 12 12 13 13 11 5 3 3 4 5 4 3 3 3 2 1 1 1
14 14 14 14 14 13 13 13 13 13 13 13 12 14 13 6 3 2 2 3 2 2
14 14 14 14 14 14 14 13 14 14 14 14 15 15 13 13 5 5 7 7 5 6
15 15 14 15 15 15 15 15 15 15 15 15 16 15 15 15 13 13 14 13 12 10
17 16 16 16 16 16 16 16 16 16 16 16 17 15 15 15 15 16 15 15 13 13
16 17 17 17 16 16 15 16 17 17 17 16 17 16 16 15 16 17 16 16 15 15
17 16 16 17 16 16 16 16 16 17 17 17 16 16 16 16 17 16 17 17 17 16